| time (UTC) | temp F | wind direction | speed MPH | gust MPH | rain 1hr in | rain 24hr in | rain mn in | humidity % | barometer mb |
| 20260503023100 | 62 | 0 | 0.0 | 0.0 | 0.00 | 0.01 | 0.01 | 81 | 1020.7 |
| 20260503022555 | 63 | 0 | 0.0 | 0.0 | 0.00 | 0.01 | 0.01 | 81 | 1020.7 |
| 20260503022057 | 63 | 0 | 0.0 | 0.0 | 0.00 | 0.01 | 0.01 | 80 | 1020.6 |
| 20260503021555 | 64 | 0 | 0.0 | 0.0 | 0.00 | 0.01 | 0.01 | 79 | 1020.6 |
| 20260503021054 | 64 | 0 | 0.0 | 0.0 | 0.00 | 0.01 | 0.01 | 78 | 1020.5 |
| 20260503020553 | 64 | 0 | 0.0 | 0.0 | 0.00 | 0.01 | 0.01 | 77 | 1020.4 |
| 20260503020053 | 65 | 0 | 0.0 | 2.0 | 0.00 | 0.01 | 0.01 | 77 | 1020.4 |
| 20260503015552 | 65 | 0 | 0.0 | 2.0 | 0.00 | 0.01 | 0.01 | 77 | 1020.4 |
| 20260503015056 | 65 | 0 | 0.0 | 0.0 | 0.00 | 0.01 | 0.01 | 76 | 1020.4 |
| 20260503014625 | 66 | 0 | 0.0 | 0.0 | 0.00 | 0.01 | 0.01 | 74 | 1020.2 |
| 20260503014052 | 66 | 0 | 0.0 | 0.0 | 0.00 | 0.01 | 0.01 | 74 | 1020.2 |
| 20260503013553 | 67 | 0 | 0.0 | 0.0 | 0.00 | 0.01 | 0.01 | 73 | 1020.2 |
| 20260503013054 | 68 | 0 | 0.0 | 0.0 | 0.00 | 0.01 | 0.01 | 72 | 1020.3 |
| 20260503012554 | 68 | 0 | 0.0 | 0.0 | 0.00 | 0.01 | 0.01 | 71 | 1020.1 |
| 20260503012051 | 68 | 0 | 0.0 | 0.0 | 0.00 | 0.01 | 0.01 | 71 | 1020.1 |
| 20260503011625 | 69 | 0 | 0.0 | 0.0 | 0.00 | 0.01 | 0.01 | 70 | 1020.2 |
| 20260503011054 | 70 | 0 | 0.0 | 0.0 | 0.00 | 0.01 | 0.01 | 67 | 1020.1 |
| 20260503010551 | 70 | 0 | 0.0 | 0.0 | 0.00 | 0.01 | 0.01 | 65 | 1020.1 |
| 20260503010053 | 71 | 0 | 0.0 | 0.0 | 0.00 | 0.01 | 0.01 | 66 | 1019.9 |
| 20260503005554 | 71 | 0 | 0.0 | 0.0 | 0.00 | 0.04 | 0.01 | 65 | 1020.0 |
| 20260503005051 | 72 | 0 | 0.0 | 0.0 | 0.00 | 0.04 | 0.01 | 64 | 1019.9 |
| 20260503004615 | 72 | 0 | 0.0 | 2.0 | 0.00 | 0.04 | 0.01 | 61 | 1019.8 |
| 20260503004051 | 72 | 0 | 0.0 | 5.0 | 0.00 | 0.04 | 0.01 | 60 | 1019.7 |
| 20260503003552 | 72 | 51 | 1.0 | 5.0 | 0.00 | 0.04 | 0.01 | 57 | 1019.6 |
| 20260503003054 | 73 | 42 | 2.0 | 6.0 | 0.00 | 0.04 | 0.01 | 56 | 1019.7 |
| 20260503002551 | 73 | 50 | 2.0 | 8.0 | 0.00 | 0.04 | 0.01 | 56 | 1019.8 |
| 20260503002053 | 73 | 48 | 2.0 | 8.0 | 0.00 | 0.04 | 0.01 | 57 | 1019.9 |
| 20260503001552 | 73 | 38 | 3.0 | 8.0 | 0.00 | 0.04 | 0.01 | 54 | 1019.7 |
| 20260503001053 | 74 | 73 | 2.0 | 8.0 | 0.00 | 0.04 | 0.01 | 54 | 1019.7 |
| 20260503000552 | 74 | 58 | 3.0 | 8.0 | 0.00 | 0.04 | 0.01 | 55 | 1019.7 |
| 20260503000053 | 74 | 68 | 2.0 | 9.0 | 0.00 | 0.04 | 0.01 | 54 | 1019.7 |
| 20260502235551 | 74 | 51 | 3.0 | 9.0 | 0.00 | 0.12 | 0.01 | 54 | 1019.6 |
| 20260502235051 | 74 | 40 | 3.0 | 6.0 | 0.00 | 0.12 | 0.01 | 54 | 1019.6 |
| 20260502234612 | 74 | 53 | 2.0 | 10.0 | 0.00 | 0.12 | 0.01 | 53 | 1019.7 |
| 20260502234051 | 74 | 77 | 4.0 | 10.0 | 0.00 | 0.12 | 0.01 | 54 | 1019.7 |
| 20260502233554 | 74 | 61 | 3.0 | 12.0 | 0.00 | 0.12 | 0.01 | 54 | 1019.6 |
| 20260502233052 | 74 | 39 | 5.0 | 12.0 | 0.00 | 0.12 | 0.01 | 52 | 1019.5 |
| 20260502232552 | 75 | 39 | 3.0 | 11.0 | 0.00 | 0.12 | 0.01 | 54 | 1019.4 |
| 20260502232053 | 75 | 88 | 2.0 | 11.0 | 0.00 | 0.12 | 0.01 | 54 | 1019.3 |
| 20260502231552 | 75 | 57 | 3.0 | 9.0 | 0.00 | 0.12 | 0.01 | 52 | 1019.2 |
| 20260502231056 | 75 | 58 | 4.0 | 9.0 | 0.00 | 0.12 | 0.01 | 52 | 1019.2 |
| 20260502230555 | 75 | 82 | 2.0 | 10.0 | 0.00 | 0.12 | 0.01 | 54 | 1019.3 |
| 20260502230059 | 75 | 314 | 2.0 | 10.0 | 0.00 | 0.12 | 0.01 | 55 | 1019.3 |
| 20260502225550 | 75 | 39 | 4.0 | 10.0 | 0.00 | 0.30 | 0.01 | 53 | 1019.3 |
| 20260502225052 | 75 | 43 | 2.0 | 11.0 | 0.00 | 0.30 | 0.01 | 53 | 1019.3 |
| 20260502224554 | 75 | 82 | 5.0 | 12.0 | 0.00 | 0.30 | 0.01 | 51 | 1019.3 |
| 20260502224052 | 75 | 59 | 6.0 | 12.0 | 0.00 | 0.30 | 0.01 | 52 | 1019.3 |
| 20260502223553 | 75 | 352 | 2.0 | 10.0 | 0.00 | 0.30 | 0.01 | 53 | 1019.3 |
| 20260502223103 | 75 | 46 | 4.0 | 11.0 | 0.00 | 0.30 | 0.01 | 53 | 1019.3 |
| 20260502222551 | 75 | 41 | 5.0 | 11.0 | 0.00 | 0.30 | 0.01 | 52 | 1019.3 |
| 20260502222052 | 75 | 44 | 3.0 | 10.0 | 0.00 | 0.30 | 0.01 | 55 | 1019.3 |
| 20260502221554 | 75 | 53 | 4.0 | 13.0 | 0.00 | 0.30 | 0.01 | 54 | 1019.4 |
| 20260502221051 | 75 | 48 | 5.0 | 13.0 | 0.00 | 0.30 | 0.01 | 52 | 1019.4 |
| 20260502220551 | 75 | 24 | 5.0 | 12.0 | 0.00 | 0.30 | 0.01 | 55 | 1019.4 |
| 20260502215551 | 75 | 49 | 4.0 | 13.0 | 0.00 | 0.30 | 0.01 | 53 | 1019.3 |
| 20260502215051 | 75 | 342 | 5.0 | 14.0 | 0.00 | 0.30 | 0.01 | 56 | 1019.4 |
| 20260502214555 | 74 | 23 | 4.0 | 16.0 | 0.00 | 0.30 | 0.01 | 55 | 1019.4 |
| 20260502214053 | 74 | 360 | 5.0 | 16.0 | 0.00 | 0.30 | 0.01 | 55 | 1019.4 |
| 20260502213552 | 74 | 22 | 5.0 | 12.0 | 0.00 | 0.30 | 0.01 | 53 | 1019.6 |
| 20260502213055 | 74 | 118 | 4.0 | 13.0 | 0.00 | 0.30 | 0.01 | 56 | 1019.6 |
| 20260502212556 | 74 | 52 | 4.0 | 14.0 | 0.00 | 0.30 | 0.01 | 56 | 1019.6 |
| 20260502212052 | 74 | 309 | 7.0 | 14.0 | 0.00 | 0.30 | 0.01 | 55 | 1019.6 |
| 20260502211553 | 74 | 46 | 5.0 | 13.0 | 0.00 | 0.30 | 0.01 | 55 | 1019.6 |
| 20260502211052 | 74 | 19 | 6.0 | 13.0 | 0.00 | 0.30 | 0.01 | 55 | 1019.7 |
| 20260502210553 | 74 | 59 | 6.0 | 13.0 | 0.00 | 0.30 | 0.01 | 56 | 1019.9 |
| 20260502210055 | 75 | 29 | 3.0 | 10.0 | 0.00 | 0.30 | 0.01 | 56 | 1019.9 |
| 20260502205552 | 74 | 311 | 4.0 | 11.0 | 0.00 | 0.44 | 0.01 | 57 | 1020.0 |
| 20260502205055 | 74 | 78 | 4.0 | 15.0 | 0.00 | 0.44 | 0.01 | 57 | 1020.0 |
| 20260502204600 | 74 | 71 | 4.0 | 15.0 | 0.00 | 0.44 | 0.01 | 57 | 1020.1 |
| 20260502204052 | 74 | 21 | 5.0 | 15.0 | 0.00 | 0.44 | 0.01 | 57 | 1020.1 |
| 20260502203551 | 74 | 26 | 4.0 | 11.0 | 0.00 | 0.44 | 0.01 | 59 | 1020.2 |
| 20260502203118 | 74 | 65 | 5.0 | 14.0 | 0.00 | 0.44 | 0.01 | 58 | 1020.2 |
| 20260502202553 | 73 | 346 | 3.0 | 14.0 | 0.00 | 0.44 | 0.01 | 57 | 1020.3 |
| 20260502202056 | 73 | 52 | 8.0 | 17.0 | 0.00 | 0.44 | 0.01 | 55 | 1020.4 |
| 20260502201604 | 73 | 36 | 7.0 | 19.0 | 0.00 | 0.44 | 0.01 | 57 | 1020.4 |
| 20260502201054 | 73 | 44 | 7.0 | 19.0 | 0.00 | 0.44 | 0.01 | 57 | 1020.4 |
| 20260502200555 | 73 | 42 | 8.0 | 19.0 | 0.00 | 0.44 | 0.01 | 57 | 1020.3 |
| 20260502200101 | 73 | 93 | 6.0 | 13.0 | 0.00 | 0.44 | 0.01 | 59 | 1020.4 |
| 20260502195554 | 73 | 59 | 5.0 | 13.0 | 0.00 | 0.55 | 0.01 | 55 | 1020.5 |
| 20260502195052 | 73 | 38 | 6.0 | 13.0 | 0.00 | 0.55 | 0.01 | 55 | 1020.8 |
| 20260502194604 | 73 | 71 | 5.0 | 12.0 | 0.00 | 0.55 | 0.01 | 56 | 1020.8 |
| 20260502194052 | 73 | 63 | 3.0 | 10.0 | 0.00 | 0.55 | 0.01 | 61 | 1021.0 |
| 20260502193553 | 73 | 80 | 5.0 | 14.0 | 0.00 | 0.55 | 0.01 | 58 | 1021.1 |
| 20260502193113 | 73 | 17 | 5.0 | 14.0 | 0.00 | 0.55 | 0.01 | 58 | 1021.0 |
| 20260502192553 | 73 | 66 | 6.0 | 14.0 | 0.00 | 0.55 | 0.01 | 56 | 1021.0 |
| 20260502192054 | 72 | 60 | 6.0 | 12.0 | 0.00 | 0.55 | 0.01 | 59 | 1021.0 |
| 20260502191602 | 72 | 79 | 5.0 | 13.0 | 0.00 | 0.55 | 0.01 | 58 | 1021.0 |
| 20260502191053 | 72 | 306 | 7.0 | 13.0 | 0.00 | 0.55 | 0.01 | 57 | 1021.1 |
| 20260502190553 | 72 | 5 | 5.0 | 13.0 | 0.00 | 0.55 | 0.01 | 58 | 1021.0 |
| 20260502190055 | 72 | 40 | 3.0 | 11.0 | 0.00 | 0.55 | 0.01 | 62 | 1021.2 |
| 20260502185551 | 72 | 26 | 4.0 | 12.0 | 0.00 | 0.58 | 0.01 | 58 | 1021.3 |
| 20260502185121 | 71 | 63 | 4.0 | 14.0 | 0.00 | 0.58 | 0.01 | 59 | 1021.3 |
| 20260502184602 | 71 | 37 | 6.0 | 15.0 | 0.00 | 0.58 | 0.01 | 59 | 1021.5 |
| 20260502184053 | 71 | 79 | 6.0 | 15.0 | 0.00 | 0.58 | 0.01 | 57 | 1021.4 |
| 20260502183553 | 71 | 38 | 6.0 | 15.0 | 0.00 | 0.58 | 0.01 | 58 | 1021.6 |
| 20260502183059 | 71 | 25 | 4.0 | 13.0 | 0.00 | 0.58 | 0.01 | 60 | 1021.5 |
| 20260502182556 | 71 | 5 | 6.0 | 15.0 | 0.00 | 0.58 | 0.01 | 60 | 1021.6 |
| 20260502182054 | 71 | 28 | 8.0 | 15.0 | 0.00 | 0.58 | 0.01 | 59 | 1021.6 |
| 20260502181556 | 71 | 44 | 6.0 | 15.0 | 0.00 | 0.58 | 0.01 | 59 | 1021.8 |
| 20260502181052 | 71 | 352 | 6.0 | 15.0 | 0.00 | 0.58 | 0.01 | 59 | 1021.9 |
| 20260502180552 | 71 | 99 | 4.0 | 12.0 | 0.00 | 0.58 | 0.01 | 60 | 1021.9 |
| 20260502164052 | 68 | 33 | 5.0 | 13.0 | 0.00 | 0.67 | 0.01 | 66 | 1022.4 |
| 20260502163554 | 68 | 16 | 6.0 | 13.0 | 0.00 | 0.67 | 0.01 | 66 | 1022.5 |
| 20260502163100 | 67 | 63 | 5.0 | 16.0 | 0.00 | 0.67 | 0.01 | 67 | 1022.4 |
| 20260502162553 | 67 | 65 | 4.0 | 16.0 | 0.00 | 0.67 | 0.01 | 69 | 1022.4 |
| 20260502162053 | 67 | 70 | 7.0 | 14.0 | 0.00 | 0.67 | 0.01 | 67 | 1022.4 |
| 20260502161555 | 66 | 81 | 6.0 | 14.0 | 0.00 | 0.67 | 0.01 | 68 | 1022.5 |
| 20260502161052 | 66 | 5 | 6.0 | 12.0 | 0.00 | 0.67 | 0.01 | 67 | 1022.4 |
| 20260502160552 | 66 | 12 | 5.0 | 15.0 | 0.00 | 0.67 | 0.01 | 70 | 1022.4 |
| 20260502152054 | 64 | 65 | 6.0 | 13.0 | 0.01 | 0.92 | 0.01 | 75 | 1021.9 |
| 20260502151611 | 63 | 44 | 6.0 | 14.0 | 0.01 | 0.92 | 0.01 | 76 | 1021.9 |
| 20260502151052 | 63 | 133 | 5.0 | 14.0 | 0.01 | 0.92 | 0.01 | 77 | 1022.0 |
| 20260502150554 | 63 | 58 | 5.0 | 13.0 | 0.01 | 0.92 | 0.01 | 78 | 1021.9 |
| 20260502130555 | 54 | 14 | 3.0 | 9.0 | 0.00 | 1.62 | 0.00 | 93 | 1020.7 |
| 20260502123554 | 52 | 20 | 2.0 | 5.0 | 0.00 | 2.04 | 0.00 | 93 | 1020.5 |
| 20260502123100 | 52 | 0 | 1.0 | 5.0 | 0.00 | 2.04 | 0.00 | 93 | 1020.4 |
| 20260502122555 | 52 | 294 | 1.0 | 5.0 | 0.00 | 2.04 | 0.00 | 93 | 1020.3 |
| 20260502122053 | 52 | 0 | 2.0 | 5.0 | 0.00 | 2.04 | 0.00 | 93 | 1020.1 |
| 20260502121559 | 52 | 0 | 1.0 | 5.0 | 0.00 | 2.04 | 0.00 | 93 | 1020.1 |
| 20260502121058 | 52 | 326 | 1.0 | 5.0 | 0.00 | 2.04 | 0.00 | 93 | 1020.1 |
| 20260502120556 | 52 | 25 | 2.0 | 9.0 | 0.00 | 2.04 | 0.00 | 93 | 1020.1 |
| 20260502115554 | 52 | 9 | 2.0 | 6.0 | 0.00 | 2.32 | 0.00 | 93 | 1019.9 |
| 20260502115052 | 52 | 323 | 2.0 | 5.0 | 0.00 | 2.32 | 0.00 | 93 | 1019.8 |
| 20260502114558 | 52 | 347 | 1.0 | 5.0 | 0.00 | 2.32 | 0.00 | 93 | 1019.9 |
| 20260502114052 | 52 | 355 | 0.0 | 4.0 | 0.00 | 2.32 | 0.00 | 93 | 1019.8 |
| 20260502113551 | 52 | 13 | 1.0 | 5.0 | 0.00 | 2.32 | 0.00 | 93 | 1019.9 |
| 20260502113104 | 52 | 28 | 1.0 | 5.0 | 0.00 | 2.32 | 0.00 | 93 | 1019.8 |
| 20260502112551 | 52 | 355 | 2.0 | 5.0 | 0.00 | 2.32 | 0.00 | 93 | 1019.7 |
| 20260502112052 | 52 | 323 | 1.0 | 5.0 | 0.00 | 2.32 | 0.00 | 93 | 1019.6 |
| 20260502111557 | 52 | 351 | 1.0 | 5.0 | 0.00 | 2.32 | 0.00 | 93 | 1019.6 |
| 20260502111055 | 52 | 36 | 1.0 | 4.0 | 0.00 | 2.32 | 0.00 | 93 | 1019.4 |
| 20260502110553 | 52 | 21 | 1.0 | 4.0 | 0.00 | 2.32 | 0.00 | 93 | 1019.3 |
| 20260502105555 | 52 | 55 | 1.0 | 5.0 | 0.00 | 2.88 | 0.00 | 93 | 1018.9 |
| 20260502105052 | 52 | 355 | 1.0 | 5.0 | 0.00 | 2.88 | 0.00 | 93 | 1018.9 |
| 20260502104607 | 52 | 25 | 2.0 | 10.0 | 0.00 | 2.88 | 0.00 | 93 | 1018.7 |
| 20260502104054 | 52 | 13 | 1.0 | 10.0 | 0.00 | 2.88 | 0.00 | 93 | 1018.8 |
| 20260502103554 | 52 | 49 | 3.0 | 10.0 | 0.00 | 2.88 | 0.00 | 92 | 1018.7 |
| 20260502103054 | 52 | 59 | 3.0 | 8.0 | 0.00 | 2.88 | 0.00 | 92 | 1018.6 |
| 20260502102557 | 52 | 340 | 3.0 | 7.0 | 0.00 | 2.88 | 0.00 | 92 | 1018.4 |
| 20260502102053 | 52 | 57 | 2.0 | 7.0 | 0.00 | 2.88 | 0.00 | 92 | 1018.4 |
| 20260502101608 | 52 | 24 | 3.0 | 6.0 | 0.00 | 2.88 | 0.00 | 92 | 1018.4 |
| 20260502101054 | 52 | 10 | 2.0 | 8.0 | 0.00 | 2.88 | 0.00 | 92 | 1018.5 |
| 20260502100552 | 52 | 360 | 2.0 | 8.0 | 0.00 | 2.88 | 0.00 | 92 | 1018.5 |
| 20260502091051 | 53 | 40 | 1.0 | 6.0 | 0.00 | 3.51 | 0.00 | 92 | 1017.6 |
| 20260502090551 | 53 | 5 | 2.0 | 6.0 | 0.00 | 3.51 | 0.00 | 92 | 1017.4 |
| 20260502071052 | 53 | 28 | 2.0 | 6.0 | 0.00 | 4.21 | 0.00 | 92 | 1017.1 |
| 20260502070552 | 53 | 55 | 2.0 | 4.0 | 0.00 | 4.21 | 0.00 | 92 | 1017.0 |
| 20260502070117 | 53 | 38 | 1.0 | 5.0 | 0.00 | 4.21 | 0.00 | 92 | 1017.1 |
| 20260502065552 | 53 | 26 | 2.0 | 5.0 | 0.00 | 4.26 | 0.00 | 92 | 1017.1 |
| 20260502065052 | 53 | 5 | 1.0 | 6.0 | 0.00 | 4.26 | 0.00 | 92 | 1017.1 |
| 20260502064556 | 53 | 38 | 2.0 | 12.0 | 0.00 | 4.26 | 0.00 | 92 | 1017.0 |
| 20260502064051 | 53 | 52 | 5.0 | 12.0 | 0.00 | 4.26 | 0.00 | 92 | 1017.1 |
| 20260502063552 | 54 | 65 | 4.0 | 11.0 | 0.00 | 4.26 | 0.00 | 92 | 1017.2 |
| 20260502063113 | 54 | 34 | 6.0 | 11.0 | 0.00 | 4.26 | 0.00 | 92 | 1017.2 |
| 20260502062556 | 54 | 360 | 3.0 | 11.0 | 0.00 | 4.26 | 0.00 | 92 | 1017.1 |
| 20260502062053 | 54 | 360 | 4.0 | 10.0 | 0.00 | 4.26 | 0.00 | 92 | 1017.2 |
| 20260502061558 | 54 | 56 | 4.0 | 10.0 | 0.00 | 4.26 | 0.00 | 92 | 1017.1 |
| 20260502061051 | 55 | 65 | 4.0 | 11.0 | 0.00 | 4.26 | 0.00 | 92 | 1017.3 |
| 20260502060551 | 55 | 40 | 2.0 | 11.0 | 0.00 | 4.26 | 0.00 | 92 | 1017.2 |
| 20260502060059 | 55 | 80 | 2.0 | 10.0 | 0.00 | 4.26 | 0.00 | 92 | 1017.3 |
| 20260502055551 | 55 | 37 | 6.0 | 14.0 | 0.00 | 4.26 | 0.00 | 92 | 1017.2 |
| 20260502055053 | 55 | 111 | 6.0 | 14.0 | 0.00 | 4.26 | 0.00 | 92 | 1017.3 |
| 20260502054606 | 55 | 13 | 7.0 | 14.0 | 0.00 | 4.26 | 0.00 | 93 | 1017.3 |
| 20260502054059 | 55 | 88 | 3.0 | 13.0 | 0.00 | 4.26 | 0.00 | 93 | 1017.3 |
| 20260502053552 | 55 | 355 | 5.0 | 13.0 | 0.00 | 4.26 | 0.00 | 93 | 1017.3 |
| 20260502053057 | 55 | 24 | 5.0 | 13.0 | 0.00 | 4.26 | 0.00 | 93 | 1017.2 |
| 20260502052552 | 55 | 105 | 5.0 | 12.0 | 0.00 | 4.26 | 0.00 | 93 | 1017.2 |
| 20260502052052 | 55 | 23 | 3.0 | 12.0 | 0.00 | 4.26 | 0.00 | 93 | 1017.3 |
| 20260502051555 | 55 | 53 | 5.0 | 14.0 | 0.00 | 4.26 | 0.00 | 93 | 1017.3 |
| 20260502051051 | 55 | 66 | 5.0 | 14.0 | 0.00 | 4.26 | 0.00 | 93 | 1017.2 |
| 20260502050551 | 55 | 11 | 5.0 | 12.0 | 0.00 | 4.26 | 0.00 | 93 | 1017.2 |
| 20260502050054 | 56 | 341 | 5.0 | 12.0 | 0.00 | 4.26 | 0.00 | 93 | 1017.1 |
| 20260502045552 | 56 | 38 | 5.0 | 12.0 | 0.00 | 4.27 | 4.26 | 93 | 1017.0 |
| 20260502045052 | 55 | 32 | 5.0 | 14.0 | 0.00 | 4.27 | 4.26 | 93 | 1017.0 |
| 20260502044553 | 55 | 58 | 6.0 | 16.0 | 0.00 | 4.27 | 4.26 | 93 | 1017.0 |
| 20260502044053 | 55 | 80 | 6.0 | 16.0 | 0.00 | 4.27 | 4.26 | 93 | 1016.9 |
| 20260502043551 | 55 | 94 | 7.0 | 16.0 | 0.00 | 4.27 | 4.26 | 93 | 1016.8 |
| 20260502043112 | 55 | 9 | 6.0 | 15.0 | 0.00 | 4.27 | 4.26 | 93 | 1016.8 |
| 20260502042551 | 55 | 17 | 6.0 | 15.0 | 0.00 | 4.27 | 4.26 | 94 | 1016.6 |
| 20260502042051 | 55 | 35 | 6.0 | 15.0 | 0.00 | 4.27 | 4.26 | 94 | 1016.8 |
| 20260502041619 | 55 | 37 | 6.0 | 15.0 | 0.00 | 4.27 | 4.26 | 94 | 1016.7 |
| 20260502041059 | 55 | 66 | 5.0 | 15.0 | 0.00 | 4.27 | 4.26 | 94 | 1016.6 |
| 20260502040552 | 56 | 32 | 8.0 | 15.0 | 0.00 | 4.27 | 4.26 | 94 | 1016.7 |
| 20260502040100 | 56 | 69 | 6.0 | 13.0 | 0.00 | 4.27 | 4.26 | 94 | 1016.6 |
| 20260502035551 | 56 | 59 | 4.0 | 13.0 | 0.00 | 4.27 | 4.26 | 94 | 1016.5 |
| 20260502035055 | 56 | 66 | 4.0 | 13.0 | 0.00 | 4.27 | 4.26 | 94 | 1016.7 |
| 20260502034557 | 56 | 9 | 5.0 | 15.0 | 0.00 | 4.27 | 4.26 | 94 | 1016.6 |
| 20260502034052 | 56 | 36 | 4.0 | 15.0 | 0.00 | 4.27 | 4.26 | 94 | 1016.6 |
| 20260502033552 | 56 | 55 | 6.0 | 14.0 | 0.00 | 4.27 | 4.26 | 94 | 1016.6 |
| 20260502033053 | 56 | 38 | 4.0 | 11.0 | 0.00 | 4.27 | 4.26 | 94 | 1016.4 |
| 20260502032551 | 56 | 5 | 4.0 | 12.0 | 0.00 | 4.27 | 4.26 | 94 | 1016.4 |
| 20260502032051 | 56 | 25 | 5.0 | 16.0 | 0.00 | 4.27 | 4.26 | 94 | 1016.3 |
| 20260502031554 | 56 | 38 | 7.0 | 16.0 | 0.00 | 4.27 | 4.26 | 94 | 1016.3 |
| 20260502031051 | 56 | 67 | 4.0 | 12.0 | 0.00 | 4.27 | 4.26 | 94 | 1016.2 |
| 20260502030553 | 56 | 28 | 6.0 | 13.0 | 0.00 | 4.27 | 4.26 | 94 | 1016.0 |
| 20260502030116 | 56 | 31 | 6.0 | 17.0 | 0.00 | 4.27 | 4.26 | 94 | 1015.9 |
| 20260502025552 | 56 | 78 | 6.0 | 17.0 | 0.00 | 4.27 | 4.26 | 94 | 1016.0 |
| 20260502025054 | 56 | 36 | 8.0 | 17.0 | 0.00 | 4.27 | 4.26 | 94 | 1016.0 |
| 20260502024604 | 57 | 38 | 6.0 | 14.0 | 0.00 | 4.27 | 4.26 | 94 | 1015.9 |
| 20260502024052 | 57 | 28 | 6.0 | 14.0 | 0.00 | 4.27 | 4.26 | 94 | 1016.0 |
| 20260502023552 | 57 | 13 | 5.0 | 11.0 | 0.00 | 4.27 | 4.26 | 94 | 1015.8 |